Location: �clusier
(49.9361°N, 2.7869°E)
Time: 07:01:25
(UTC+00:00)

ALOS 2 - Pass Details

Date: 16 June 2021
Orbit: 630 x 632 km, 97.9° (Epoch: 31 July)

Event Time Altitude Azimuth Distance (km) Brightness Sun altitude
Exits shadow 23:49:18 25° 216° (SW) 1,274 3.7 -16.7°
Maximum altitude 23:51:10 37° 263° (W) 990 3.5 -16.7°
Drops below altitude 10° 23:55:16 10° 331° (NNW) 2,026 6.1 -16.7°
Sets 23:57:37 0° 340° (NNW) 2,939 7.3 -16.7°
